FW0299 Weather Reports


Display with metric or nautical units.
time (UTC)temp
F
wind
direction
speed
MPH
gust
MPH
rain 1hr
in
rain 24hr
in
rain mn
in
humidity
%
barometer
mb
20200404082350 26 0 0.0 0.0 0.00 0.00 0.00 83 1012.1
20200404081848 26 0 0.0 0.0 0.00 0.00 0.00 83 1012.2
20200404081348 26 0 0.0 0.0 0.00 0.00 0.00 83 1012.3
20200404080847 26 0 0.0 0.0 0.00 0.00 0.00 82 1012.3
20200404080340 26 0 0.0 0.0 0.00 0.00 0.00 82 1012.2
20200404075838 26 0 0.0 0.0 0.00 0.00 0.00 83 1012.3
20200404075336 27 0 0.0 0.0 0.00 0.00 0.00 82 1012.3
20200404074836 27 0 0.0 0.0 0.00 0.00 0.00 82 1012.4
20200404074334 27 0 0.0 0.0 0.00 0.00 0.00 82 1012.5
20200404073827 27 0 0.0 0.0 0.00 0.00 0.00 82 1012.5
20200404073327 27 0 0.0 0.0 0.00 0.00 0.00 82 1012.6
20200404072825 27 0 0.0 0.0 0.00 0.00 0.00 83 1012.6
20200404072323 27 0 0.0 0.0 0.00 0.00 0.00 82 1012.7
20200404071824 27 0 0.0 0.0 0.00 0.00 0.00 82 1012.8
20200404071319 27 0 0.0 0.0 0.00 0.00 0.00 82 1013.1
20200404070822 27 0 0.0 0.0 0.00 0.00 0.00 82 1013.0
20200404070320 27 0 0.0 0.0 0.00 0.00 0.00 82 1013.1
20200404065824 27 0 0.0 0.0 0.00 0.00 0.00 82 1013.1
20200404065318 27 0 0.0 0.0 0.00 0.00 0.00 82 1013.0
20200404064813 27 0 0.0 0.0 0.00 0.00 0.00 81 1013.2
20200404064311 27 0 0.0 0.0 0.00 0.00 0.00 81 1013.2
20200404063811 27 0 0.0 0.0 0.00 0.00 0.00 80 1013.3
20200404063312 27 0 0.0 0.0 0.00 0.00 0.00 80 1013.3
20200404062807 27 0 0.0 0.0 0.00 0.00 0.00 80 1013.4
20200404062301 28 0 0.0 0.0 0.00 0.00 0.00 80 1013.5
20200404061800 28 0 0.0 0.0 0.00 0.00 0.00 80 1013.5
20200404061415 28 0 0.0 0.0 0.00 0.00 0.00 79 1013.6
20200404060800 28 0 0.0 0.0 0.00 0.00 0.00 79 1013.6
20200404060255 28 0 0.0 0.0 0.00 0.00 0.00 79 1013.6
20200404055750 28 0 0.0 0.0 0.00 0.00 0.00 79 1013.6
20200404055247 28 0 0.0 0.0 0.00 0.00 0.00 79 1013.6
20200404054745 29 0 0.0 0.0 0.00 0.00 0.00 78 1013.6
20200404054247 29 0 0.0 0.0 0.00 0.00 0.00 78 1013.7
20200404053743 29 0 0.0 0.0 0.00 0.00 0.00 78 1013.6
20200404053242 29 0 0.0 0.0 0.00 0.00 0.00 78 1013.6
20200404052742 29 0 0.0 0.0 0.00 0.00 0.00 78 1013.5
20200404052241 29 0 0.0 0.0 0.00 0.00 0.00 77 1013.7
20200404051739 30 0 0.0 0.0 0.00 0.00 0.00 76 1013.7
20200404051237 30 0 0.0 0.0 0.00 0.00 0.00 76 1013.7
20200404050740 30 0 0.0 0.0 0.00 0.00 0.00 76 1013.7
20200404050232 30 0 0.0 0.0 0.00 0.00 0.00 75 1013.6
20200404045729 31 0 0.0 0.0 0.00 0.00 0.00 75 1013.7
20200404045229 31 0 0.0 0.0 0.00 0.00 0.00 76 1013.7
20200404044725 30 0 0.0 0.0 0.00 0.00 0.00 77 1013.6
20200404044229 30 0 0.0 0.0 0.00 0.00 0.00 76 1013.5
20200404043719 31 0 0.0 0.0 0.00 0.00 0.00 74 1013.5
20200404043217 31 0 0.0 0.0 0.00 0.00 0.00 74 1013.3
20200404042720 31 0 0.0 0.0 0.00 0.00 0.00 73 1013.4
20200404042213 32 0 0.0 0.0 0.00 0.00 0.00 72 1013.3
20200404041717 32 0 0.0 0.0 0.00 0.00 0.00 71 1013.3
20200404041209 33 0 0.0 0.0 0.00 0.00 0.00 70 1013.2
20200404040710 33 0 0.0 0.0 0.00 0.00 0.00 71 1013.3
20200404040441 33 0 0.0 0.0 0.00 0.00 0.00 70 1013.2
20200404040209 33 0 0.0 0.0 0.00 0.00 0.00 70 1013.2
20200404035712 34 0 0.0 0.0 0.00 0.00 0.00 70 1013.2
20200404035208 34 0 0.0 0.0 0.00 0.00 0.00 68 1013.2
20200404034709 35 0 0.0 0.0 0.00 0.00 0.00 69 1013.2
20200404034206 35 0 0.0 0.0 0.00 0.00 0.00 66 1013.2
20200404033659 35 0 0.0 0.0 0.00 0.00 0.00 65 1013.2
20200404033200 36 0 0.0 0.0 0.00 0.00 0.00 64 1013.2
20200404032655 37 0 0.0 0.0 0.00 0.00 0.00 62 1013.2
20200404032155 37 0 0.0 0.0 0.00 0.00 0.00 63 1013.2
20200404031653 38 0 0.0 0.0 0.00 0.00 0.00 62 1013.2
20200404031151 39 0 0.0 0.0 0.00 0.00 0.00 61 1013.2
20200404030653 39 0 0.0 0.0 0.00 0.00 0.00 58 1013.1
20200404030145 40 0 0.0 0.0 0.00 0.00 0.00 57 1013.1
20200404025650 41 0 0.0 0.0 0.00 0.00 0.00 56 1013.1
20200404025145 42 0 0.0 0.0 0.00 0.00 0.00 55 1013.1
20200404024645 42 0 0.0 0.0 0.00 0.00 0.00 55 1013.1
20200404024149 43 0 0.0 0.0 0.00 0.00 0.00 53 1013.1
20200404023645 44 0 0.0 0.0 0.00 0.00 0.00 54 1013.1
20200404023144 44 0 0.0 0.0 0.00 0.00 0.00 55 1013.2
20200404022645 45 0 0.0 0.0 0.00 0.00 0.00 49 1013.2
20200404022141 46 0 0.0 0.0 0.00 0.00 0.00 49 1013.2
20200404021645 46 0 0.0 0.0 0.00 0.00 0.00 49 1013.2
20200404021143 46 0 0.0 0.0 0.00 0.00 0.00 44 1013.3
20200404020643 47 0 0.0 0.0 0.00 0.00 0.00 43 1013.3
20200404020141 48 0 0.0 0.0 0.00 0.00 0.00 39 1013.4
20200404015641 48 0 0.0 0.0 0.00 0.00 0.00 38 1013.4
20200404015136 48 0 0.0 0.0 0.00 0.00 0.00 36 1013.4
20200404014637 49 0 0.0 0.0 0.00 0.00 0.00 35 1013.4
20200404014142 49 0 0.0 0.0 0.00 0.00 0.00 34 1013.5
20200404013636 50 0 0.0 0.0 0.00 0.00 0.00 34 1013.5
20200404013137 50 0 0.0 0.0 0.00 0.00 0.00 34 1013.5
20200404012642 50 0 0.0 0.0 0.00 0.00 0.00 33 1013.5
20200404012133 50 0 0.0 0.0 0.00 0.00 0.00 34 1013.5
20200404011633 51 0 0.0 0.0 0.00 0.00 0.00 34 1013.6
20200404011132 51 0 0.0 0.0 0.00 0.00 0.00 35 1013.5
20200404010635 51 0 0.0 0.0 0.00 0.00 0.00 33 1013.5
20200404010124 51 0 0.0 0.0 0.00 0.00 0.00 33 1013.6
20200404005622 51 0 0.0 0.0 0.00 0.00 0.00 35 1013.7
20200404005120 51 0 0.0 0.0 0.00 0.00 0.00 33 1013.7
20200404004644 51 0 0.0 0.0 0.00 0.00 0.00 35 1013.6
20200404004119 50 0 0.0 0.0 0.00 0.00 0.00 34 1013.6
20200404003616 50 0 0.0 0.0 0.00 0.00 0.00 33 1013.7
20200404003119 50 0 0.0 0.0 0.00 0.00 0.00 33 1013.7
20200404002617 50 0 0.0 0.0 0.00 0.00 0.00 33 1013.9
20200404002114 51 0 0.0 0.0 0.00 0.00 0.00 32 1013.9
20200404001613 51 0 0.0 0.0 0.00 0.00 0.00 33 1013.9
20200404001115 50 0 0.0 0.0 0.00 0.00 0.00 34 1014.0
20200404000611 50 0 0.0 0.0 0.00 0.00 0.00 34 1014.1
20200404000109 50 0 0.0 0.0 0.00 0.00 0.00 35 1014.1
20200403235610 50 0 0.0 0.0 0.00 0.00 0.00 34 1014.1
20200403235107 50 0 0.0 0.0 0.00 0.00 0.00 34 1014.1
20200403234613 50 0 0.0 0.0 0.00 0.00 0.00 34 1014.2
20200403234107 50 0 0.0 0.0 0.00 0.00 0.00 33 1014.2
20200403233604 50 0 0.0 0.0 0.00 0.00 0.00 36 1014.2
20200403233102 50 0 0.0 0.0 0.00 0.00 0.00 34 1014.4
20200403232604 50 0 0.0 0.0 0.00 0.00 0.00 36 1014.5
20200403232100 50 0 0.0 0.0 0.00 0.00 0.00 35 1014.5
20200403231558 51 0 0.0 0.0 0.00 0.00 0.00 35 1014.4
20200403231103 50 0 0.0 0.0 0.00 0.00 0.00 37 1014.5
20200403230552 50 0 0.0 0.0 0.00 0.00 0.00 36 1014.6
20200403230051 50 0 0.0 0.0 0.00 0.00 0.00 35 1014.8
20200403225549 51 0 0.0 0.0 0.00 0.00 0.00 35 1014.9
20200403225047 51 0 0.0 0.0 0.00 0.00 0.00 35 1014.9
20200403224552 50 0 0.0 0.0 0.00 0.00 0.00 35 1015.0
20200403224044 51 0 0.0 0.0 0.00 0.00 0.00 36 1014.9
20200403223542 51 0 0.0 0.0 0.00 0.00 0.00 36 1015.0
20200403223040 51 0 0.0 0.0 0.00 0.00 0.00 36 1015.0
20200403222540 50 0 0.0 0.0 0.00 0.00 0.00 39 1015.0
20200403222040 49 0 0.0 0.0 0.00 0.00 0.00 38 1015.0
20200403221540 49 0 0.0 0.0 0.00 0.00 0.00 37 1015.2
20200403221039 49 0 0.0 0.0 0.00 0.00 0.00 36 1015.3
20200403220536 49 0 0.0 0.0 0.00 0.00 0.00 37 1015.3
20200403220039 49 0 0.0 0.0 0.00 0.00 0.00 38 1015.4
20200403215534 49 0 0.0 0.0 0.00 0.00 0.00 36 1015.5
20200403215040 49 0 0.0 0.0 0.00 0.00 0.00 37 1015.5
20200403214533 49 0 0.0 0.0 0.00 0.00 0.00 38 1015.6
20200403214030 48 0 0.0 0.0 0.00 0.00 0.00 37 1015.6
20200403213532 49 0 0.0 0.0 0.00 0.00 0.00 37 1015.8
20200403213030 48 0 0.0 0.0 0.00 0.00 0.00 42 1016.0
20200403212530 48 0 0.0 0.0 0.00 0.00 0.00 39 1016.1
20200403212028 48 0 0.0 0.0 0.00 0.00 0.00 39 1016.4
20200403211532 47 0 0.0 0.0 0.00 0.00 0.00 40 1016.4
20200403211026 47 0 0.0 0.0 0.00 0.00 0.00 42 1016.4
20200403210525 47 0 0.0 0.0 0.00 0.00 0.00 40 1016.4
20200403210024 47 0 0.0 0.0 0.00 0.00 0.00 39 1016.4
20200403205524 47 0 0.0 0.0 0.00 0.00 0.00 42 1016.4
20200403205022 47 0 0.0 0.0 0.00 0.00 0.00 39 1016.7
20200403204522 47 0 0.0 0.0 0.00 0.00 0.00 41 1016.7
20200403204021 47 0 0.0 0.0 0.00 0.00 0.00 38 1016.8
20200403203514 46 0 0.0 0.0 0.00 0.00 0.00 38 1016.7
20200403203012 46 0 0.0 0.0 0.00 0.00 0.00 39 1016.8
20200403202510 46 0 0.0 0.0 0.00 0.00 0.00 44 1016.8
20200403202240 46 0 0.0 0.0 0.00 0.00 0.00 40 1016.9
20200403202012 46 0 0.0 0.0 0.00 0.00 0.00 40 1016.9
20200403201508 46 0 0.0 0.0 0.00 0.00 0.00 46 1017.0
20200403201005 45 0 0.0 0.0 0.00 0.00 0.00 43 1017.1
20200403200510 45 0 0.0 0.0 0.00 0.00 0.00 41 1017.1
20200403200005 45 0 0.0 0.0 0.00 0.00 0.00 40 1017.1
20200403195506 45 0 0.0 0.0 0.00 0.00 0.00 42 1017.1
20200403195002 45 0 0.0 0.0 0.00 0.00 0.00 40 1017.1
20200403194456 44 0 0.0 0.0 0.00 0.00 0.00 45 1017.2
20200403193955 44 0 0.0 0.0 0.00 0.00 0.00 40 1017.2
20200403193454 43 0 0.0 0.0 0.00 0.00 0.00 41 1017.3
20200403192950 43 0 0.0 0.0 0.00 0.00 0.00 43 1017.6
20200403192450 43 0 0.0 0.0 0.00 0.00 0.00 44 1017.4
20200403191955 43 0 0.0 0.0 0.00 0.00 0.00 43 1017.7
20200403191450 44 0 0.0 0.0 0.00 0.00 0.00 46 1017.8
20200403190950 43 0 0.0 0.0 0.00 0.00 0.00 44 1017.8
20200403190450 42 0 0.0 0.0 0.00 0.00 0.00 44 1017.9
20200403185949 42 0 0.0 0.0 0.00 0.00 0.00 46 1017.9
20200403185446 42 0 0.0 0.0 0.00 0.00 0.00 44 1018.0
20200403185000 43 0 0.0 0.0 0.00 0.00 0.00 43 1018.0
20200403184446 42 0 0.0 0.0 0.00 0.00 0.00 47 1018.1
20200403183947 41 0 0.0 0.0 0.00 0.00 0.00 47 1018.1
20200403183446 41 0 0.0 0.0 0.00 0.00 0.00 44 1018.2
20200403182942 41 0 0.0 0.0 0.00 0.00 0.00 43 1018.3
20200403182445 41 0 0.0 0.0 0.00 0.00 0.00 42 1018.2
20200403181946 41 0 0.0 0.0 0.00 0.00 0.00 42 1018.3
20200403181442 40 0 0.0 0.0 0.00 0.00 0.00 49 1018.3
20200403180941 40 0 0.0 0.0 0.00 0.00 0.00 46 1018.3
20200403180441 39 0 0.0 0.0 0.00 0.00 0.00 49 1018.3
20200403175939 39 0 0.0 0.0 0.00 0.00 0.00 51 1018.3
20200403175438 39 0 0.0 0.0 0.00 0.00 0.00 58 1018.3
20200403174934 39 0 0.0 0.0 0.00 0.00 0.00 59 1018.4
20200403174439 39 0 0.0 0.0 0.00 0.00 0.00 60 1018.4
20200403173934 39 0 0.0 0.0 0.00 0.00 0.00 58 1018.4
20200403173438 38 0 0.0 0.0 0.00 0.00 0.00 62 1018.6
20200403172933 38 0 0.0 0.0 0.00 0.00 0.00 66 1018.6
20200403172431 38 0 0.0 0.0 0.00 0.00 0.00 62 1018.6
20200403171929 37 0 0.0 0.0 0.00 0.00 0.00 67 1018.4
20200403171429 37 0 0.0 0.0 0.00 0.00 0.00 71 1018.6
20200403170927 37 0 0.0 0.0 0.00 0.00 0.00 71 1018.6
20200403170425 36 0 0.0 0.0 0.00 0.00 0.00 74 1018.7
20200403165929 36 0 0.0 0.0 0.00 0.00 0.00 72 1018.7
20200403165420 35 0 0.0 0.0 0.00 0.00 0.00 73 1018.7
20200403164918 35 0 0.0 0.0 0.00 0.00 0.00 74 1018.7
20200403164417 35 0 0.0 0.0 0.00 0.00 0.00 77 1018.8
20200403163913 35 0 0.0 0.0 0.00 0.00 0.00 77 1018.8
20200403163415 34 0 0.0 0.0 0.00 0.00 0.00 77 1018.8
20200403162906 34 0 0.0 0.0 0.00 0.00 0.00 79 1018.7
20200403162403 34 0 0.0 0.0 0.00 0.00 0.00 80 1018.8
20200403161904 33 0 0.0 0.0 0.00 0.00 0.00 82 1018.7
20200403161403 33 0 0.0 0.0 0.00 0.00 0.00 82 1018.8
20200403160903 33 0 0.0 0.0 0.00 0.00 0.00 81 1018.8
20200403160403 33 0 0.0 0.0 0.00 0.00 0.00 84 1018.8
20200403155901 32 0 0.0 0.0 0.00 0.00 0.00 85 1018.9
20200403155357 31 0 0.0 0.0 0.00 0.00 0.00 87 1018.8
20200403154854 30 0 0.0 0.0 0.00 0.00 0.00 90 1018.9
20200403154352 29 0 0.0 0.0 0.00 0.00 0.00 94 1018.8
20200403153851 28 0 0.0 0.0 0.00 0.00 0.00 94 1018.9
20200403153350 27 0 0.0 0.0 0.00 0.00 0.00 95 1018.9
20200403152843 26 0 0.0 0.0 0.00 0.00 0.00 94 1018.8
20200403152341 25 0 0.0 0.0 0.00 0.00 0.00 94 1018.9
20200403151839 24 0 0.0 0.0 0.00 0.00 0.00 93 1018.8
20200403151338 24 0 0.0 0.0 0.00 0.00 0.00 92 1018.9
20200403150837 24 0 0.0 0.0 0.00 0.00 0.00 92 1019.0
20200403150334 24 0 0.0 0.0 0.00 0.00 0.00 93 1018.9
20200403145837 24 0 0.0 0.0 0.00 0.00 0.00 93 1019.0
20200403145335 24 0 0.0 0.0 0.00 0.00 0.00 93 1018.9
20200403144837 24 0 0.0 0.0 0.00 0.00 0.00 93 1018.8
20200403144332 24 0 0.0 0.0 0.00 0.00 0.00 94 1018.8
20200403143831 23 0 0.0 0.0 0.00 0.00 0.00 93 1018.8
20200403143331 23 0 0.0 0.0 0.00 0.00 0.00 93 1018.8
20200403142831 23 0 0.0 0.0 0.00 0.00 0.00 93 1018.7
20200403142328 23 0 0.0 0.0 0.00 0.00 0.00 93 1018.8
20200403142100 23 0 0.0 0.0 0.00 0.00 0.00 93 1018.8
20200403141828 23 0 0.0 0.0 0.00 0.00 0.00 93 1018.8
20200403141331 23 0 0.0 0.0 0.00 0.00 0.00 94 1018.8
20200403140826 23 0 0.0 0.0 0.00 0.00 0.00 94 1018.8
20200403140323 23 0 0.0 0.0 0.00 0.00 0.00 94 1018.8
20200403135823 22 0 0.0 0.0 0.00 0.00 0.00 93 1018.7
20200403135323 22 0 0.0 0.0 0.00 0.00 0.00 93 1018.7
20200403134821 22 0 0.0 0.0 0.00 0.00 0.00 93 1018.6
20200403134321 22 0 0.0 0.0 0.00 0.00 0.00 93 1018.6
20200403133819 22 0 0.0 0.0 0.00 0.00 0.00 93 1018.6
20200403133315 22 0 0.0 0.0 0.00 0.00 0.00 93 1018.3
20200403132811 22 0 0.0 0.0 0.00 0.00 0.00 93 1018.3
20200403132308 22 0 0.0 0.0 0.00 0.00 0.00 92 1018.4
20200403131808 22 0 0.0 0.0 0.00 0.00 0.00 93 1018.4
20200403131307 22 0 0.0 0.0 0.00 0.00 0.00 93 1018.3
20200403130805 22 0 0.0 0.0 0.00 0.00 0.00 92 1018.3
20200403130305 23 0 0.0 0.0 0.00 0.00 0.00 93 1018.4
20200403125803 23 0 0.0 0.0 0.00 0.00 0.00 93 1018.3
20200403125305 23 0 0.0 0.0 0.00 0.00 0.00 92 1018.4
20200403124800 23 0 0.0 0.0 0.00 0.00 0.00 92 1018.3
20200403124259 23 0 0.0 0.0 0.00 0.00 0.00 92 1018.3
20200403123759 23 0 0.0 0.0 0.00 0.00 0.00 92 1018.3
20200403123303 23 0 0.0 0.0 0.00 0.00 0.00 92 1018.4
20200403122757 23 0 0.0 0.0 0.00 0.00 0.00 92 1018.4
20200403122257 22 0 0.0 0.0 0.00 0.00 0.00 92 1018.4
20200403121758 22 0 0.0 0.0 0.00 0.00 0.00 92 1018.4
20200403121257 22 0 0.0 0.0 0.00 0.00 0.00 91 1018.4
20200403120802 23 0 0.0 0.0 0.00 0.00 0.00 91 1018.6
20200403120257 23 0 0.0 0.0 0.00 0.00 0.00 91 1018.6
20200403115914 23 0 0.0 0.0 0.00 0.00 0.00 92 1018.6
20200403115255 22 0 0.0 0.0 0.00 0.00 0.00 91 1018.6
20200403114758 22 0 0.0 0.0 0.00 0.00 0.00 91 1018.6
20200403114252 23 0 0.0 0.0 0.00 0.00 0.00 90 1018.6
20200403113755 23 0 0.0 0.0 0.00 0.00 0.00 90 1018.7
20200403113257 23 0 0.0 0.0 0.00 0.00 0.00 91 1018.8
20200403112749 23 0 0.0 0.0 0.00 0.00 0.00 90 1018.8
20200403112249 23 0 0.0 0.0 0.00 0.00 0.00 90 1018.8
20200403111753 23 0 0.0 0.0 0.00 0.00 0.00 90 1018.8
20200403111248 23 0 0.0 0.0 0.00 0.00 0.00 90 1018.9
20200403110749 23 0 0.0 0.0 0.00 0.00 0.00 89 1018.9
20200403110249 23 0 0.0 0.0 0.00 0.00 0.00 88 1018.9
20200403105745 23 0 0.0 0.0 0.00 0.00 0.00 89 1019.0
20200403105245 23 0 0.0 0.0 0.00 0.00 0.00 88 1018.9
20200403104743 24 0 0.0 0.0 0.00 0.00 0.00 88 1019.0
20200403104514 24 0 0.0 0.0 0.00 0.00 0.00 88 1018.9
20200403103735 24 0 0.0 0.0 0.00 0.00 0.00 89 1018.9
20200403103509 24 0 0.0 0.0 0.00 0.00 0.00 87 1019.0
20200403102731 24 0 0.0 0.0 0.00 0.00 0.00 88 1019.0
20200403102231 24 0 0.0 0.0 0.00 0.00 0.00 87 1019.0
20200403101728 24 0 0.0 0.0 0.00 0.00 0.00 87 1019.1
20200403101231 24 0 0.0 0.0 0.00 0.00 0.00 86 1019.0
20200403100728 24 0 0.0 0.0 0.00 0.00 0.00 86 1019.1
20200403100416 24 0 0.0 0.0 0.00 0.00 0.00 85 1019.2
20200403095728 24 0 0.0 0.0 0.00 0.00 0.00 86 1019.1
20200403095220 24 0 0.0 0.0 0.00 0.00 0.00 86 1019.1
20200403094721 24 0 0.0 0.0 0.00 0.00 0.00 85 1019.3
20200403094218 24 0 0.0 0.0 0.00 0.00 0.00 85 1019.2
20200403093718 24 0 0.0 0.0 0.00 0.00 0.00 86 1019.2
20200403093215 24 0 0.0 0.0 0.00 0.00 0.00 86 1019.3
20200403092716 24 0 0.0 0.0 0.00 0.00 0.00 84 1019.3
20200403092214 24 0 0.0 0.0 0.00 0.00 0.00 84 1019.3
20200403091705 24 0 0.0 0.0 0.00 0.00 0.00 84 1019.3
20200403091210 24 0 0.0 0.0 0.00 0.00 0.00 84 1019.3
20200403090702 24 0 0.0 0.0 0.00 0.00 0.00 84 1019.3
20200403090200 24 0 0.0 0.0 0.00 0.00 0.00 83 1019.5
20200403085659 24 0 0.0 0.0 0.00 0.00 0.00 83 1019.5
20200403085156 25 0 0.0 0.0 0.00 0.00 0.00 83 1019.3
20200403084655 25 0 0.0 0.0 0.00 0.00 0.00 83 1019.5
20200403084152 25 0 0.0 0.0 0.00 0.00 0.00 83 1019.2
20200403083657 25 0 0.0 0.0 0.00 0.00 0.00 83 1019.3
20200403083147 25 0 0.0 0.0 0.00 0.00 0.00 83 1019.5
20200403082644 25 0 0.0 0.0 0.00 0.00 0.00 83 1019.5